Погода в Колке

Погода в Колке : погода сейчас, прогноз погоды и архив. Всё, что Вы хотите узнать о погоде в Колке!

Поиск расширенной информации на нашем сайте:

Другие новости

Новости СМИ2

Главная страница сайта

Новости сайта

03.07.2017

Напоминаем, что на нашем специализированном сайте Метеоцентр.Азия вы можете получить высокодетализированные автоматические прогнозы погоды по пунктам России, СНГ и мира в авиационном формате (включающие направление и скорость ветра, видимость, явления погоды, количество и форму облачности, нижнюю и верхнюю границу облачности).


Погода в Колке - сегодня

Время (UTC), дата Ветер
(°,м/с) 
Видим.   Явления Облачность Т
(°С)
Тd
(°С)
f(%) Тe
(°С)
Pmin
(гПа)
dP
(гПа)
Po
(мм)
O2
(г/м3)
Тmin Tmax R s Состояние
почвы
15 17.10.17 250 (З) 6-10{12}  н/о    н/о 
+15.2 +13 87 +20  1008.9  -3.2  756  285           
18 17.10.17 240 (ЮЗ) 4{12}  н/о    10/0 кучево-дожд. 
[Cb cap]
+12.8 +11 89 +14  1008.1  -0.8  756  288    +15.2  0.8     
21 17.10.17 250 (З) 6-13{12}  н/о    н/о 
+13 +9.9 81 +13  1007.6  -0.5  755  288           
00 18.10.17 250 (З) 7-14{15}  н/о    н/о 
+12.9 +8.3 74 +12  1006.6  -1  754  289           
03 18.10.17 250 (З) 7-12{15}  н/о    н/о 
+12.1 +9.8 86 +12  1005.3  -1.3  754  288           
06 18.10.17 260 (З) 6-10{15}  4000 м  слаб. ливневой дождь  10/0 кучево-дожд., средняя 
[Cb cap|As op]
+12 +10 88 +12  1005.3  754  288  +12    0.7     
09 18.10.17 330 (СЗ) 5{13}  н/о    н/о 
+11.2 +10 92 +11  1007.4  2.1  755  290           
12 18.10.17 330 (СЗ) 4{13}  н/о    н/о 
+11.1 +7.1 76 +10  1010.4  757  292           
15 18.10.17 300 (СЗ) н/о    н/о 
+9.5 +4.8 72 +9  1012.6  2.2  759  294           
18 18.10.17 310 (СЗ) н/о    3/0 
[Cu med, cong]
+9.6 +5.5 76 +9  1014.1  1.5  760  294    +12.5  0.3     
21 18.10.17 310 (СЗ) н/о    н/о 
+9.8 +5.1 73 +10  1015.4  1.3  761  294           
00 19.10.17 300 (СЗ) н/о    н/о 
+9 +5.5 79 +9  1016.1  0.7  762  296           
03 19.10.17 280 (З) н/о    н/о 
+9.3 +4.8 73 +9  1016.8  0.7  762  295           
06 19.10.17 300 (СЗ) 10 км    8/0 кучево-дожд. 
[Cb cap]
+9.9 +4.8 71 +9  1018.1  1.3  763  295  +9    0.3     
09 19.10.17 300 (СЗ) н/о    н/о 
+11.8 +5.6 66 +12  1019.6  1.5  764  293           
12 19.10.17 300 (СЗ) н/о    н/о 
+11.9 +5.5 65 +12  1020.3  0.7  765  294           
15 19.10.17 310 (СЗ) н/о    н/о 
+9 +4.9 75 +10  1020.8  0.5  765  297           
18 19.10.17 330 (СЗ) н/о    4/0 кучево-дожд. 
[Cb cap]
+7 +5.9 93 +8  1021.7  0.9  766  299    +12.1       
21 19.10.17 360 (С) н/о    н/о 
+3.1 +2.3 94 +4  1022.3  0.6  766  304           
00 20.10.17 тихо ()   н/о    н/о 
+2 +1.8 99 +2  1022.6  0.3  766  306           
03 20.10.17 тихо ()   н/о    н/о 
+2.6 +2.4 99 +3  1022.6  766  305           
06 20.10.17 тихо ()   н/о    н/о 
+3.6 +3.4 99 +4  1022.8  0.2  767  304  +1.8         
09 20.10.17 тихо ()   н/о    н/о 
+9.5 +6 79 +10  1023.4  0.6  767  297           
12 20.10.17 110 (В) н/о    н/о 
+10 +4.3 68 +11  1023.1  -0.3  767  297           
15 20.10.17 110 (В) н/о    н/о 
+9 +4.3 72 +10  1022.6  -0.5  766  297           
Время (UTC), дата Ветер
(°,м/с) 
Видим.   Явления Облачность Т
(°С)
Тd
(°С)
f(%) Тe
(°С)
Pmin
(гПа)
dP
(гПа)
Po
(мм)
O2
(г/м3)
Тmin Tmax R s Состояние
почвы

Для получения пояснительной информации подведите курсор к названию столбца.

ПОГОДА в Колке - архив

Всё, что Вы хотите узнать о погоде в Колке - удобно и подробно!

Выберите нужную дату (начиная с 1 января 2015* года) и нажмите кнопку "Найти".
Будут отображены архивные сводки погоды по пункту Колка, начиная с указанной даты.


Отображать данные в формате CSV (для использования в таблицах Excel)


Внимание! Наш архив погоды предназначен исключительно для личного некоммерческого использования в познавательных целях. Если Вам необходимы официальные справки о состоянии погоды (для производственных, юридических, коммерческих и т.п. целей), обращайтесь в органы Росгидромета.

*Примечание: данная дата относится к архиву по метеостанциям СССР (Россия, СНГ, Балтия).
Архив по метеостанциям Зарубежной Европы и Азии (кроме Китая) хранится 10 дней, по другим регионам земного шара (Китай, Африка, Америка, Австралия, Океания) - 1 день.

Колка - район местоположения метеостанции


Название, широта, долгота, высота метеостанции:
Колка 57.8°ш. 22.6°д. 5 м над ур. моря [Латвия]

Дополнительная информация

В oтличие oт бoльшинства пoгoдных сайтoв мы публикуем пoдрoбную метеoинфoрмацию в детальнoм прoфессиoнальнoм фoрмате.

Характеристики температуры и влажнoсти вoздуха измеряются на высoте 2 м в тени вдали oт зданий и деревьев.
Скoрoсть ветра измеряется на высoте 10 м (на урoвне рoста челoвека скoрoсть ветра ниже в 1.5-2 раза). Если метеoстанция нахoдится в гoрoде или в лесу, тo скoрoсть ветра занижена на 2-4 м/с пo сравнению с oткрытым местoм. Скoрoсть ветра над акватoриями крупных рек и oзёр, а также на вершинах хoлмoв на 2-5 м/с выше, чем в oбычных услoвиях.
Атмoсфернoе давление в разных тoчках местнoсти мoжет значительнo oтличаться oт давления на метеoстанции, в зависимoсти oт услoвий рельефа (при пoдъёме на 10 м давление пoнижается примернo на 1 мм рт.ст.).